Regional Weather Roundup
Issued by NWS

Home | Current Version | Previous Version | Text Only | Print | Product List | Glossary On
Versions: 1 2 3 4 5 6 7 8 9 10 11 12 13 14 15 16 17 18 19 20 21 22 23 24 25 26 27 28 29 30 31 32 33 34 35 36 37 38 39 40 41 42 43 44 45 46 47 48 49 50
000
ASUS43 KMKX 270621
RWRWI

WISCONSIN REGIONAL WEATHER ROUNDUP
NATIONAL WEATHER SERVICE MILWAUKEE/SULLIVAN WI
100 AM CDT WED AUG 27 2014

NOTE: "FAIR" INDICATES FEW OR NO CLOUDS BELOW 12,000 FEET WITH NO
SIGNIFICANT WEATHER AND/OR OBSTRUCTIONS TO VISIBILITY.

WIZ001-002-006>008-014>016-023>028-270700-
NORTHWEST WISCONSIN

CITY           SKY/WX    TMP DP  RH WIND       PRES   REMARKS
SUPERIOR ARPT  LGT RAIN  55  54  94 CALM      30.20R
6HR MIN TEMP:  55; 6HR MAX TEMP:  65;

ASHLAND        CLOUDY    58  53  84 W3        30.19R
6HR MIN TEMP:  53; 6HR MAX TEMP:  66;

HAYWARD        CLOUDY    57  56  96 CALM      30.21R
6HR MIN TEMP:  56; 6HR MAX TEMP:  67; 6HR PCP:  0.03;

SIREN          CLOUDY    57  56  95 N3        30.22R
6HR MIN TEMP:  57; 6HR MAX TEMP:  65;

RICE LAKE      LGT RAIN  59  55  87 NW5       30.22R
6HR MIN TEMP:  60; 6HR MAX TEMP:  66; 6HR PCP:  0.01;

LADYSMITH      CLOUDY    60  57  89 NW5       30.20R
6HR MIN TEMP:  60; 6HR MAX TEMP:  68;

EAU CLAIRE     MOCLDY    63  56  78 N6        30.17R
6HR MIN TEMP:  61; 6HR MAX TEMP:  68;

MENOMONIE      LGT RAIN  63  57  81 NW5       30.19S
6HR MIN TEMP:  63; 6HR MAX TEMP:  71;

NEW RICHMOND   LGT RAIN  61  54  79 N5        30.20R
6HR MIN TEMP:  61; 6HR MAX TEMP:  67;

OSCEOLA        LGT RAIN  61  59  95 CALM      30.23S
6HR MIN TEMP:  60; 6HR MAX TEMP:  68; 6HR PCP:  0.01;

$$

WIZ003>005-009-010-017-018-270700-
NORTH CENTRAL WISCONSIN

CITY           SKY/WX    TMP DP  RH WIND       PRES   REMARKS
WOODRUFF       RAIN      57  55  92 CALM      30.18S
6HR MIN TEMP:  55; 6HR MAX TEMP:  64;

RHINELANDER    MOCLDY    55  53  93 CALM      30.18S
6HR MIN TEMP:  53; 6HR MAX TEMP:  67;

EAGLE RIVER    FAIR      51  51 100 CALM      30.17S
6HR MIN TEMP:  49; 6HR MAX TEMP:  64;

LAND O LAKES   FAIR      49  49  99 CALM      30.19R
6HR MIN TEMP:  47; 6HR MAX TEMP:  62;

PHILLIPS       CLOUDY    55  54  95 CALM      30.17S
6HR MIN TEMP:  54; 6HR MAX TEMP:  65;

TOMAHAWK       FAIR      52  50  95 CALM      30.18S
6HR MIN TEMP:  51; 6HR MAX TEMP:  65;

MEDFORD        FAIR      56  55  94 CALM      30.19R
6HR MIN TEMP:  54; 6HR MAX TEMP:  65;

MERRILL        FAIR      56  54  94 CALM      30.17S
6HR MIN TEMP:  56; 6HR MAX TEMP:  67;

$$

WIZ029-030-035-036-043>047-270700-
CENTRAL WISCONSIN

CITY           SKY/WX    TMP DP  RH WIND       PRES   REMARKS
WAUSAU         FAIR      59  55  87 NW3       30.15S
6HR MIN TEMP:  59; 6HR MAX TEMP:  69;

MOSINEE        FAIR      59  55  88 N5        30.17S
MARSHFIELD     FAIR      59  55  87 N8        30.17R
6HR MIN TEMP:  57; 6HR MAX TEMP:  67;

STEVENS POINT  FAIR      58  54  86 CALM      30.17R
6HR MIN TEMP:  58; 6HR MAX TEMP:  68;

WAUPACA        FAIR      64  58  79 NW3       30.15S
6HR MIN TEMP:  61; 6HR MAX TEMP:  72;

WAUTOMA        FAIR      61  58  90 CALM      30.16R
6HR MIN TEMP:  60; 6HR MAX TEMP:  72;

WISC RAPIDS    FAIR      62  55  77 NW3       30.17S
6HR MIN TEMP:  60; 6HR MAX TEMP:  67;

CAMP DOUGLAS   FAIR      59  59 100 NW2       30.16R
6HR MIN TEMP:  58; 6HR MAX TEMP:  66;

$$

WIZ011>013-019>022-031-037>040-048>050-270700-
NORTHEAST WISCONSIN

CITY           SKY/WX    TMP DP  RH WIND       PRES   REMARKS
ANTIGO         FAIR      55  53  91 CALM      30.17S
6HR MIN TEMP:  55; 6HR MAX TEMP:  66;

STURGEON BAY   CLOUDY    61  54  77 NE8       30.15R
6HR MIN TEMP:  61; 6HR MAX TEMP:  70;

GREEN BAY      FAIR      61  56  83 N8        30.15R
6HR MIN TEMP:  59; 6HR MAX TEMP:  71;

MANITOWOC      FAIR      62  58  86 CALM      30.13S
6HR MIN TEMP:  61; 6HR MAX TEMP:  72;

APPLETON       FAIR      61  55  82 NW7       30.15R
CLINTONVILLE   FAIR      61  54  77 N5        30.15R
OSHKOSH        LGT RAIN  64  58  80 NW6       30.13S
6HR MIN TEMP:  63; 6HR MAX TEMP:  72; 6HR PCP: TRACE;

$$

WIZ032>034-041-042-053>061-270700-
SOUTHWEST WISCONSIN

CITY           SKY/WX    TMP DP  RH WIND       PRES   REMARKS
LA CROSSE      FAIR      65  59  81 N3        30.16R
6HR MIN TEMP:  64; 6HR MAX TEMP:  72;

SPARTA         FAIR      60  58  94 CALM      30.18R FOG
6HR MIN TEMP:  59; 6HR MAX TEMP:  69;

VIROQUA        CLOUDY    62  58  86 CALM      30.18R
6HR MIN TEMP:  62; 6HR MAX TEMP:  69;

BOSCOBEL       MOCLDY    65  62  90 CALM      30.15S
6HR MIN TEMP:  65; 6HR MAX TEMP:  75;

PRAIRIE DU CHI FAIR      67  59  76 CALM      30.15R
6HR MIN TEMP:  66; 6HR MAX TEMP:  73;

PLATTEVILLE    FAIR      65  61  86 N6        30.16S
6HR MIN TEMP:  65; 6HR MAX TEMP:  74;

$$

WIZ056-057-062-063-064-067-068-270700-
SOUTH CENTRAL WISCONSIN

CITY           SKY/WX    TMP DP  RH WIND       PRES   REMARKS
BARABOO/DELLS  LGT RAIN  64  56  74 N3        30.15S
6HR MIN TEMP:  64; 6HR MAX TEMP:  71;

LONE ROCK      MOCLDY    68  61  78 CALM      30.14F
6HR MIN TEMP:  68; 6HR MAX TEMP:  78;

WATERTOWN      FAIR      63  58  85 NE5       30.13S
6HR MIN TEMP:  60; 6HR MAX TEMP:  72;

MADISON        LGT RAIN  64  58  80 NW3       30.14S
6HR MIN TEMP:  62; 6HR MAX TEMP:  75; 6HR PCP: TRACE;

MIDDLETON      CLOUDY    65  62  91 CALM      30.16R
6HR MIN TEMP:  61; 6HR MAX TEMP:  74;

MONROE         FAIR      64  61  88 N6        30.14R
JANESVILLE     FAIR      66  63  88 CALM      30.13S
$$

WIZ051-052-058>065-066-070>072-270700-
SOUTHEAST WISCONSIN

CITY           SKY/WX    TMP DP  RH WIND       PRES   REMARKS
MILWAUKEE      MOCLDY    67  58  72 N5        30.12S
6HR MIN TEMP:  66; 6HR MAX TEMP:  76;

WAUKESHA       FAIR      61  55  82 CALM      30.15S
MILWAUKEE/TIMM FAIR      63  55  77 CALM      30.14R
RACINE         FAIR      64  61  90 NW3       30.14S
6HR MIN TEMP:  63; 6HR MAX TEMP:  74;

BURLINGTON     FAIR      60  60 100 CALM      30.14R
6HR MIN TEMP:  58; 6HR MAX TEMP:  70;

KENOSHA        FAIR      64  61  90 CALM      30.13S
6HR MIN TEMP:  62; 6HR MAX TEMP:  75;

FOND DU LAC    FAIR      63  56  78 NW5       30.14S
6HR MIN TEMP:  62; 6HR MAX TEMP:  72;

SHEBOYGAN      FAIR      61  58  90 W3        30.13S
6HR MIN TEMP:  57; 6HR MAX TEMP:  71;

WEST BEND      FAIR      61  55  82 CALM      30.14S
JUNEAU         FAIR      63  56  80 CALM      30.15S
6HR MIN TEMP:  60; 6HR MAX TEMP:  71;

$$

LSZ147-162-270700-
LAKE SUPERIOR

STATION/POSITION TIME  TEMP    WIND        PRES    WAVE
                       AIR SEA DIR/SP/G            HT/PER
                 (UTC) (F)     (DEG/KT/KT) (MB)    (FT/S)
W MID LAKE BUOY  0550   58 55  300/  8/ 10 1021.0R   1/ 3
DEVILS ISLAND    0600   61      CALM  /  1 1022.1R
PORT WING        0540   60     230/  2/  4 1022.4R
SAXON HARBOR     0500   57      CALM  /  3 1021.3
$$

LMZ867-665-643>646-270700-
LAKE MICHIGAN

STATION/POSITION TIME  TEMP    WIND        PRES    WAVE
                       AIR SEA DIR/SP/G            HT/PER
                 (UTC) (F)     (DEG/KT/KT) (MB)    (FT/S)
N MID LAKE BUOY  0550   62 65  360/ 14/ 16 1019.9S   2/ 4
NORTHPORT PIER   0500   63      10/  8/  9 1020.3S
SISTER BAY       0541   62      30/  6/  9   N/A
KEWAUNEE LAKESHO 0500   61     300/  1/  2 1018.8S
SHEBOYGAN LAKESH 0600   66 65  300/  6/  7 1020.2S
ATWATER BUOY     0600   68     350/ 10/ 12 1021.2R
MILWAUKEE LAKESH 0600   68     340/  7/  9   N/A
S MID LAKE BUOY  0550   68 69     CALM     1020.0R   0
KENOSHA   LAKESH 0600   68        CALM     1019.6S
$$

TC  - TEMPERATURE IN CELSIUS
VSB - VISIBILITY IN STATUTE MILES
WCI - WIND CHILL INDEX
HX  - HEAT INDEX



USA.gov is the U.S. government's official web portal to all federal, state and local government web resources and services.